TimePST,TemperatureF,Dew PointF,Humidity,Sea Level PressureIn,VisibilityMPH,Wind Direction,Wind SpeedMPH,Gust SpeedMPH,PrecipitationIn,Events,Conditions,WindDirDegrees,DateUTC
12:10 AM,32.0,32.0,100,30.05,2.0,West,3.5,-,0.01,,Mostly Cloudy,270,2012-12-16 08:10:00
12:30 AM,32.0,32.0,100,30.06,3.0,Calm,Calm,-,0.01,,Mostly Cloudy,0,2012-12-16 08:30:00
1:10 AM,32.0,32.0,100,30.05,4.0,Calm,Calm,-,N/A,,Overcast,0,2012-12-16 09:10:00
1:30 AM,32.0,32.0,100,30.06,3.0,Calm,Calm,-,N/A,,Mostly Cloudy,0,2012-12-16 09:30:00
1:50 AM,32.0,32.0,100,30.06,3.0,West,3.5,-,N/A,,Overcast,260,2012-12-16 09:50:00
2:10 AM,32.0,32.0,100,30.07,3.0,West,3.5,-,0.01,,Overcast,280,2012-12-16 10:10:00
2:30 AM,32.0,32.0,100,30.07,2.5,WNW,3.5,-,0.01,,Overcast,290,2012-12-16 10:30:00
2:50 AM,32.0,32.0,100,30.06,3.0,West,3.5,-,0.01,,Overcast,280,2012-12-16 10:50:00
3:30 AM,32.0,32.0,100,30.05,2.5,Calm,Calm,-,N/A,,Partly Cloudy,0,2012-12-16 11:30:00
3:50 AM,32.0,32.0,100,30.04,2.5,Calm,Calm,-,N/A,,Clear,0,2012-12-16 11:50:00
4:10 AM,32.0,32.0,100,30.05,2.0,WNW,3.5,-,0.01,,Scattered Clouds,300,2012-12-16 12:10:00
4:30 AM,32.0,32.0,100,30.05,1.8,West,3.5,-,0.02,,Mostly Cloudy,280,2012-12-16 12:30:00
4:50 AM,32.0,32.0,100,30.05,1.8,Calm,Calm,-,0.02,,Mostly Cloudy,0,2012-12-16 12:50:00
5:10 AM,32.0,32.0,100,30.05,2.5,West,3.5,-,N/A,,Mostly Cloudy,270,2012-12-16 13:10:00
5:30 AM,32.0,32.0,100,30.04,1.8,West,3.5,-,0.01,,Mostly Cloudy,270,2012-12-16 13:30:00
5:50 AM,32.0,32.0,100,30.04,2.0,Calm,Calm,-,0.02,,Mostly Cloudy,0,2012-12-16 13:50:00
6:10 AM,32.0,32.0,100,30.04,1.8,Calm,Calm,-,0.01,,Overcast,0,2012-12-16 14:10:00
6:30 AM,32.0,32.0,100,30.05,2.5,Calm,Calm,-,0.02,,Mostly Cloudy,0,2012-12-16 14:30:00
6:50 AM,32.0,32.0,100,30.04,2.5,Calm,Calm,-,0.03,,Scattered Clouds,0,2012-12-16 14:50:00
7:10 AM,32.0,32.0,100,30.05,2.5,Calm,Calm,-,N/A,,Mostly Cloudy,0,2012-12-16 15:10:00
7:30 AM,32.0,32.0,100,30.05,2.0,Calm,Calm,-,0.02,,Scattered Clouds,0,2012-12-16 15:30:00
7:50 AM,32.0,32.0,100,30.05,2.0,Calm,Calm,-,0.02,,Scattered Clouds,0,2012-12-16 15:50:00
8:10 AM,32.0,32.0,100,30.05,0.8,Calm,Calm,-,0.01,,Overcast,0,2012-12-16 16:10:00
8:30 AM,32.0,32.0,100,30.05,1.2,Calm,Calm,-,0.02,,Overcast,0,2012-12-16 16:30:00
8:50 AM,32.0,32.0,100,30.05,1.2,Calm,Calm,-,0.03,,Overcast,0,2012-12-16 16:50:00
9:10 AM,32.0,32.0,100,30.06,1.0,Calm,Calm,-,0.01,,Mostly Cloudy,0,2012-12-16 17:10:00
9:30 AM,32.0,32.0,100,30.06,1.8,Calm,Calm,-,0.02,,Scattered Clouds,0,2012-12-16 17:30:00
9:50 AM,32.0,32.0,100,30.05,1.0,Calm,Calm,-,0.04,,Unknown,0,2012-12-16 17:50:00
10:10 AM,32.0,32.0,100,30.06,0.8,Calm,Calm,-,0.01,,Mostly Cloudy,0,2012-12-16 18:10:00
10:30 AM,32.0,32.0,100,30.06,1.2,Calm,Calm,-,0.03,,Scattered Clouds,0,2012-12-16 18:30:00
10:50 AM,32.0,32.0,100,30.06,0.8,Calm,Calm,-,0.05,,Scattered Clouds,0,2012-12-16 18:50:00
11:10 AM,32.0,32.0,100,30.06,1.0,Calm,Calm,-,0.01,,Mostly Cloudy,0,2012-12-16 19:10:00
11:30 AM,32.0,32.0,100,30.05,1.2,Calm,Calm,-,0.02,,Mostly Cloudy,0,2012-12-16 19:30:00
11:50 AM,32.0,32.0,100,30.05,0.8,Calm,Calm,-,0.04,,Mostly Cloudy,0,2012-12-16 19:50:00
12:10 PM,32.0,32.0,100,30.03,1.0,Calm,Calm,-,0.02,,Overcast,0,2012-12-16 20:10:00
12:30 PM,32.0,32.0,100,30.03,1.0,Calm,Calm,-,0.05,,Overcast,0,2012-12-16 20:30:00
12:50 PM,32.0,32.0,100,30.02,1.0,Calm,Calm,-,0.07,,Overcast,0,2012-12-16 20:50:00
1:10 PM,32.0,32.0,100,30.01,0.8,Calm,Calm,-,0.01,,Unknown,0,2012-12-16 21:10:00
1:30 PM,32.0,32.0,100,30.01,1.5,Calm,Calm,-,0.04,,Scattered Clouds,0,2012-12-16 21:30:00
1:50 PM,32.0,32.0,100,30.00,0.8,Calm,Calm,-,0.05,,Unknown,0,2012-12-16 21:50:00
2:10 PM,32.0,32.0,100,30.00,1.0,Calm,Calm,-,N/A,,Mostly Cloudy,0,2012-12-16 22:10:00
2:30 PM,32.0,32.0,100,29.99,1.0,Calm,Calm,-,0.01,,Overcast,0,2012-12-16 22:30:00
2:50 PM,32.0,32.0,100,29.98,0.8,Calm,Calm,-,0.02,,Overcast,0,2012-12-16 22:50:00
3:10 PM,32.0,32.0,100,29.98,0.5,Calm,Calm,-,0.01,,Overcast,0,2012-12-16 23:10:00
3:30 PM,32.0,32.0,100,29.99,0.8,Calm,Calm,-,0.02,,Overcast,0,2012-12-16 23:30:00
3:50 PM,32.0,32.0,100,29.99,0.5,Calm,Calm,-,0.05,,Overcast,0,2012-12-16 23:50:00
4:10 PM,32.0,32.0,100,29.97,0.5,Calm,Calm,-,0.01,,Overcast,0,2012-12-17 00:10:00
4:30 PM,32.0,32.0,100,29.97,0.8,Calm,Calm,-,0.02,,Overcast,0,2012-12-17 00:30:00
4:50 PM,32.0,32.0,100,29.96,0.5,Calm,Calm,-,0.03,,Overcast,0,2012-12-17 00:50:00
5:10 PM,32.0,32.0,100,29.95,1.8,Calm,Calm,-,0.01,,Overcast,0,2012-12-17 01:10:00
5:30 PM,32.0,32.0,100,29.95,1.2,Calm,Calm,-,0.01,,Overcast,0,2012-12-17 01:30:00
5:50 PM,32.0,32.0,100,29.93,1.2,Calm,Calm,-,0.02,,Overcast,0,2012-12-17 01:50:00
6:10 PM,32.0,32.0,100,29.92,1.5,Calm,Calm,-,0.01,,Overcast,0,2012-12-17 02:10:00
6:30 PM,32.0,32.0,100,29.92,1.2,Calm,Calm,-,0.02,,Overcast,0,2012-12-17 02:30:00
6:50 PM,32.0,32.0,100,29.93,0.8,Calm,Calm,-,0.03,,Overcast,0,2012-12-17 02:50:00
7:10 PM,32.0,32.0,100,29.91,1.8,West,3.5,-,0.01,,Overcast,280,2012-12-17 03:10:00
7:30 PM,32.0,32.0,100,29.90,2.0,Calm,Calm,-,0.03,,Overcast,0,2012-12-17 03:30:00
7:50 PM,32.0,32.0,100,29.90,1.8,Calm,Calm,-,0.06,,Overcast,0,2012-12-17 03:50:00
8:10 PM,33.8,32.0,93,29.88,2.0,Calm,Calm,-,0.01,,Overcast,0,2012-12-17 04:10:00
8:30 PM,32.0,32.0,100,29.89,1.8,Calm,Calm,-,0.04,,Overcast,0,2012-12-17 04:30:00
8:50 PM,32.0,32.0,100,29.88,2.0,WSW,3.5,-,0.07,,Overcast,240,2012-12-17 04:50:00
9:10 PM,32.0,32.0,100,29.86,2.5,Calm,Calm,-,0.02,,Overcast,0,2012-12-17 05:10:00
9:30 PM,32.0,32.0,100,29.86,2.5,Calm,Calm,-,0.05,,Overcast,0,2012-12-17 05:30:00
9:50 PM,32.0,32.0,100,29.86,2.5,WSW,3.5,-,0.09,,Overcast,240,2012-12-17 05:50:00
10:10 PM,32.0,32.0,100,29.85,3.0,SW,3.5,-,0.03,,Mostly Cloudy,220,2012-12-17 06:10:00
10:30 PM,32.0,32.0,100,29.85,3.0,Calm,Calm,-,0.06,,Overcast,0,2012-12-17 06:30:00
10:50 PM,32.0,32.0,100,29.85,2.5,West,4.6,-,0.09,,Overcast,280,2012-12-17 06:50:00
11:10 PM,32.0,32.0,100,29.84,3.0,West,3.5,-,N/A,,Overcast,260,2012-12-17 07:10:00
11:30 PM,32.0,32.0,100,29.82,4.0,Calm,Calm,-,0.02,,Overcast,0,2012-12-17 07:30:00
11:50 PM,32.0,32.0,100,29.82,2.5,Calm,Calm,-,0.09,,Overcast,0,2012-12-17 07:50:00